TimeEST,TemperatureF,Dew PointF,Humidity,Sea Level PressureIn,VisibilityMPH,Wind Direction,Wind SpeedMPH,Gust SpeedMPH,PrecipitationIn,Events,Conditions,WindDirDegrees,DateUTC
12:53 AM,33.1,19.0,56,30.00,9.0,Calm,Calm,-,0.00,Snow,Light Snow,0,2013-02-16 05:53:00
1:53 AM,30.0,26.1,85,30.00,10.0,Calm,Calm,-,N/A,,Overcast,0,2013-02-16 06:53:00
2:53 AM,28.9,26.1,89,29.99,10.0,Calm,Calm,-,N/A,,Mostly Cloudy,0,2013-02-16 07:53:00
3:53 AM,28.0,25.0,88,29.98,10.0,Calm,Calm,-,N/A,,Mostly Cloudy,0,2013-02-16 08:53:00
4:53 AM,26.1,23.0,88,29.98,10.0,SW,3.5,-,N/A,,Mostly Cloudy,220,2013-02-16 09:53:00
5:53 AM,25.0,21.9,88,29.98,10.0,Calm,Calm,-,N/A,,Mostly Cloudy,0,2013-02-16 10:53:00
6:53 AM,25.0,21.9,88,29.99,10.0,Calm,Calm,-,N/A,,Mostly Cloudy,0,2013-02-16 11:53:00
7:53 AM,28.0,18.0,66,30.01,10.0,NW,4.6,-,N/A,,Mostly Cloudy,310,2013-02-16 12:53:00
8:53 AM,28.0,17.1,63,30.01,10.0,North,9.2,-,N/A,,Mostly Cloudy,350,2013-02-16 13:53:00
9:53 AM,28.9,15.1,56,30.01,10.0,Variable,4.6,-,N/A,,Clear,0,2013-02-16 14:53:00
10:53 AM,30.0,14.0,51,29.99,10.0,Calm,Calm,-,N/A,,Scattered Clouds,0,2013-02-16 15:53:00
11:53 AM,30.9,14.0,50,29.97,10.0,Variable,3.5,-,N/A,,Mostly Cloudy,0,2013-02-16 16:53:00
12:53 PM,32.0,12.0,44,29.95,10.0,Variable,3.5,-,N/A,,Mostly Cloudy,0,2013-02-16 17:53:00
1:53 PM,32.0,10.0,40,29.93,10.0,North,10.4,-,N/A,,Clear,10,2013-02-16 18:53:00
2:53 PM,32.0,15.1,50,29.93,10.0,ENE,9.2,-,N/A,,Partly Cloudy,70,2013-02-16 19:53:00
3:53 PM,30.9,15.1,52,29.93,10.0,NE,12.7,-,N/A,,Clear,50,2013-02-16 20:53:00
4:53 PM,28.9,14.0,54,29.94,10.0,NE,11.5,-,N/A,,Clear,40,2013-02-16 21:53:00
5:53 PM,28.0,10.9,49,29.96,10.0,NE,9.2,-,N/A,,Clear,40,2013-02-16 22:53:00
6:53 PM,26.1,10.0,51,29.96,10.0,North,13.8,-,N/A,,Partly Cloudy,360,2013-02-16 23:53:00
7:53 PM,25.0,7.0,46,29.96,10.0,NNE,13.8,-,N/A,,Overcast,20,2013-02-17 00:53:00
8:53 PM,24.1,7.0,48,29.96,10.0,North,6.9,-,N/A,,Clear,10,2013-02-17 01:53:00
9:53 PM,23.0,7.0,50,29.93,10.0,NNE,8.1,-,N/A,,Clear,30,2013-02-17 02:53:00
10:53 PM,21.9,7.0,53,29.92,10.0,NNE,9.2,-,N/A,,Clear,20,2013-02-17 03:53:00
11:53 PM,21.9,5.0,48,29.90,10.0,North,9.2,-,N/A,,Clear,10,2013-02-17 04:53:00